Location: Владивосток
(43.1151°N, 131.8856°E)
Time: 23:08:32
(UTC+10:00)

EO-88 - Pass Details

Date: 05 July 2022
Orbit: 453 x 461 km, 97.3° (Epoch: 17 August)

Event Time Altitude Azimuth Distance (km) Brightness Sun altitude
Exits shadow 23:32:44 14° 236° (WSW) 1,369 ? -19.9°
Maximum altitude 23:34:11 18° 266° (W) 1,215 ? -20.0°
Drops below altitude 10° 23:36:39 10° 312° (NW) 1,629 ? -20.2°
Sets 23:39:12 0° 332° (NNW) 2,510 ? -20.4°
